EW9204 Weather Reports


Display with metric or nautical units.
time (UTC)temp
F
wind
direction
speed
MPH
gust
MPH
rain 1hr
in
rain 24hr
in
rain mn
in
humidity
%
barometer
mb
20260505055016 54 0 0.0 5.0 0.00 0.00 0.00 75 1010.6
20260505054543 54 291 1.0 5.0 0.00 0.00 0.00 75 1010.7
20260505054015 54 93 1.0 4.0 0.00 0.00 0.00 75 1010.8
20260505053514 54 51 0.0 3.0 0.00 0.00 0.00 75 1010.8
20260505053030 54 196 1.0 3.0 0.00 0.00 0.00 74 1010.8
20260505052514 55 0 0.0 2.0 0.00 0.00 0.00 74 1010.8
20260505052014 55 212 0.0 5.0 0.00 0.00 0.00 73 1010.9
20260505051538 55 238 1.0 5.0 0.00 0.00 0.00 73 1010.9
20260505051016 55 0 0.0 5.0 0.00 0.00 0.00 73 1011.0
20260505050520 55 0 1.0 5.0 0.00 0.00 0.00 72 1010.9
20260505041545 54 217 2.0 5.0 0.00 0.00 0.00 74 1011.2
20260505041016 54 205 1.0 5.0 0.00 0.00 0.00 74 1011.2
20260505040516 54 0 1.0 5.0 0.00 0.00 0.00 74 1011.2
20260505040030 55 205 1.0 4.0 0.00 0.00 0.00 73 1011.1
20260505035519 55 279 1.0 5.0 0.00 0.00 0.00 73 1011.2
20260505035014 55 282 1.0 5.0 0.00 0.00 0.00 73 1011.2
20260505034530 55 0 0.0 4.0 0.00 0.00 0.00 72 1011.2
20260505034015 56 254 1.0 5.0 0.00 0.00 0.00 72 1011.3
20260505033515 56 0 1.0 5.0 0.00 0.00 0.00 71 1011.3
20260505033032 56 212 2.0 6.0 0.00 0.00 0.00 71 1011.3
20260505032522 56 221 2.0 6.0 0.00 0.00 0.00 71 1011.4
20260505032015 56 221 2.0 6.0 0.00 0.00 0.00 72 1011.3
20260505031538 56 245 2.0 4.0 0.00 0.00 0.00 71 1011.3
20260505031015 56 187 1.0 4.0 0.00 0.00 0.00 71 1011.4
20260505030516 56 273 1.0 5.0 0.00 0.00 0.00 71 1011.3
20260505030042 57 247 2.0 5.0 0.00 0.00 0.00 70 1011.3
20260505025515 57 275 2.0 7.0 0.00 0.00 0.00 70 1011.3
20260505025016 57 245 2.0 7.0 0.00 0.00 0.00 71 1011.3
20260505024529 57 265 2.0 6.0 0.00 0.00 0.00 71 1011.3
20260505024015 57 277 2.0 4.0 0.00 0.00 0.00 70 1011.3
20260505023514 57 205 2.0 4.0 0.00 0.00 0.00 70 1011.3
20260505023031 57 214 2.0 5.0 0.00 0.00 0.00 71 1011.4
20260505022516 57 196 2.0 5.0 0.00 0.00 0.00 71 1011.4
20260505022014 57 272 2.0 7.0 0.00 0.00 0.00 71 1011.5
20260505021531 57 238 1.0 7.0 0.00 0.00 0.00 72 1011.4
20260505021013 57 137 2.0 7.0 0.00 0.00 0.00 72 1011.4
20260505020514 56 178 2.0 6.0 0.00 0.00 0.00 72 1011.4
20260505020045 56 257 1.0 6.0 0.00 0.00 0.00 73 1011.3
20260505015516 56 232 2.0 6.0 0.00 0.00 0.00 73 1011.4
20260505015014 56 238 1.0 5.0 0.00 0.00 0.00 73 1011.3
20260505014531 56 190 1.0 5.0 0.00 0.00 0.00 73 1011.4
20260505014014 56 265 2.0 4.0 0.00 0.00 0.00 73 1011.3
20260505013513 56 212 1.0 4.0 0.00 0.00 0.00 73 1011.2
20260505013032 56 277 2.0 5.0 0.00 0.00 0.00 73 1011.2
20260505012514 56 255 2.0 6.0 0.00 0.00 0.00 73 1011.2
20260505012017 56 214 2.0 6.0 0.00 0.00 0.00 73 1011.2
20260505011533 56 238 1.0 6.0 0.00 0.00 0.00 73 1011.1
20260505011014 56 237 3.0 6.0 0.00 0.00 0.00 73 1011.0
20260505010514 56 229 2.0 5.0 0.00 0.00 0.00 72 1010.9
20260505010047 57 265 2.0 5.0 0.00 0.00 0.00 72 1010.8
20260505005516 57 217 2.0 5.0 0.00 0.00 0.00 72 1010.8
20260505005019 57 221 1.0 5.0 0.00 0.00 0.00 71 1010.7
20260505004531 57 247 2.0 8.0 0.00 0.00 0.00 71 1010.6
20260505004015 57 254 3.0 8.0 0.00 0.00 0.00 71 1010.5
20260505003516 57 243 2.0 8.0 0.00 0.00 0.00 70 1010.4
20260505003045 57 265 2.0 6.0 0.00 0.00 0.00 69 1010.4
20260505002519 57 238 3.0 7.0 0.00 0.00 0.00 69 1010.3
20260505002015 58 178 2.0 7.0 0.00 0.00 0.00 68 1010.2
20260505001538 58 238 2.0 8.0 0.00 0.00 0.00 68 1010.3
20260505001018 58 250 3.0 9.0 0.00 0.00 0.00 67 1010.3
20260505000516 58 212 2.0 9.0 0.00 0.00 0.00 67 1010.2
20260505000037 59 216 4.0 13.0 0.00 0.00 0.00 65 1010.0
20260504235516 59 223 5.0 13.0 0.00 0.00 0.00 64 1010.0
20260504235016 59 201 3.0 9.0 0.00 0.00 0.00 63 1010.0
20260504234533 59 217 3.0 16.0 0.00 0.00 0.00 62 1009.9
20260504234013 60 108 5.0 16.0 0.00 0.00 0.00 62 1009.8
20260504233515 60 201 6.0 16.0 0.00 0.00 0.00 61 1009.8
20260504233032 60 210 5.0 13.0 0.00 0.00 0.00 60 1009.7
20260504232516 60 230 5.0 13.0 0.00 0.00 0.00 59 1009.7
20260504232013 61 190 4.0 12.0 0.00 0.00 0.00 59 1009.6
20260504231533 61 219 4.0 16.0 0.00 0.00 0.00 58 1009.6
20260504231015 61 243 6.0 16.0 0.00 0.00 0.00 57 1009.4
20260504230515 61 217 5.0 13.0 0.00 0.00 0.00 56 1009.5
20260504230031 62 223 5.0 15.0 0.00 0.00 0.00 56 1009.4
20260504225514 62 178 7.0 16.0 0.00 0.00 0.00 55 1009.3
20260504225016 62 186 6.0 16.0 0.00 0.00 0.00 54 1009.4
20260504224536 62 202 7.0 17.0 0.00 0.00 0.00 54 1009.3
20260504224016 63 209 4.0 17.0 0.00 0.00 0.00 53 1009.4
20260504223516 63 155 4.0 17.0 0.00 0.00 0.00 53 1009.4
20260504223033 64 166 6.0 17.0 0.00 0.00 0.00 52 1009.3
20260504222513 64 175 4.0 16.0 0.00 0.00 0.00 51 1009.4
20260504222015 64 195 8.0 16.0 0.00 0.00 0.00 50 1009.5
20260504221532 65 205 6.0 12.0 0.00 0.00 0.00 51 1009.6
20260504221014 65 119 5.0 14.0 0.00 0.00 0.00 50 1009.6
20260504220515 65 219 5.0 14.0 0.00 0.00 0.00 49 1009.6
20260504220032 65 238 8.0 14.0 0.00 0.00 0.00 49 1009.8
20260504215517 66 137 4.0 14.0 0.00 0.00 0.00 49 1009.7
20260504215017 66 225 6.0 14.0 0.00 0.00 0.00 47 1009.8
20260504214539 66 184 6.0 14.0 0.00 0.00 0.00 47 1009.8
20260504214015 66 242 8.0 14.0 0.00 0.00 0.00 46 1009.9
20260504213513 67 225 5.0 16.0 0.00 0.00 0.00 47 1009.9
20260504213031 67 175 7.0 16.0 0.00 0.00 0.00 45 1010.1
20260504212516 67 202 7.0 15.0 0.00 0.00 0.00 45 1010.1
20260504212015 67 131 7.0 16.0 0.00 0.00 0.00 45 1010.0
20260504211533 68 173 5.0 16.0 0.00 0.00 0.00 45 1010.0
20260504211016 68 54 7.0 15.0 0.00 0.00 0.00 44 1009.8
20260504210521 68 249 4.0 14.0 0.00 0.00 0.00 45 1010.0
20260504210030 68 190 6.0 17.0 0.00 0.00 0.00 44 1009.9
20260504205514 68 265 5.0 17.0 0.00 0.00 0.00 43 1009.9
20260504205017 70 218 7.0 19.0 0.00 0.00 0.00 41 1009.8
20260504204529 70 157 6.0 19.0 0.00 0.00 0.00 32 1009.7
20260504204016 71 173 4.0 15.0 0.00 0.00 0.00 34 1009.9
20260504203513 71 236 7.0 15.0 0.00 0.00 0.00 33 1009.8
20260504203034 70 328 3.0 17.0 0.00 0.00 0.00 33 1009.7
20260504202514 70 243 6.0 17.0 0.00 0.00 0.00 33 1009.8
20260504202016 70 163 8.0 15.0 0.00 0.00 0.00 33 1009.9
20260504201536 70 314 3.0 10.0 0.00 0.00 0.00 34 1010.0
20260504201016 70 288 2.0 12.0 0.00 0.00 0.00 34 1010.1
20260504200517 70 218 5.0 14.0 0.00 0.00 0.00 35 1010.3
20260504200045 70 198 6.0 14.0 0.00 0.00 0.00 34 1010.2
20260504195516 70 223 7.0 14.0 0.00 0.00 0.00 33 1010.3
20260504195016 70 121 5.0 13.0 0.00 0.00 0.00 34 1010.2
20260504194535 70 162 3.0 13.0 0.00 0.00 0.00 36 1010.2
20260504194014 70 177 5.0 16.0 0.00 0.00 0.00 36 1010.3
20260504193521 70 215 7.0 16.0 0.00 0.00 0.00 34 1010.2
20260504193030 70 184 4.0 13.0 0.00 0.00 0.00 35 1010.2
20260504192516 70 239 3.0 17.0 0.00 0.00 0.00 35 1010.3
20260504192013 70 309 4.0 17.0 0.00 0.00 0.00 35 1010.5
20260504191534 70 262 6.0 17.0 0.00 0.00 0.00 33 1010.7
20260504191018 69 205 4.0 17.0 0.00 0.00 0.00 37 1010.7
20260504190520 69 173 5.0 17.0 0.00 0.00 0.00 36 1010.8
20260504190031 69 213 6.0 15.0 0.00 0.00 0.00 36 1010.8
20260504185515 69 225 4.0 11.0 0.00 0.00 0.00 35 1010.7
20260504185019 70 212 4.0 11.0 0.00 0.00 0.00 36 1010.8
20260504184537 69 203 6.0 18.0 0.00 0.00 0.00 34 1010.9
20260504184015 69 108 5.0 18.0 0.00 0.00 0.00 37 1010.9
20260504183517 69 230 6.0 16.0 0.00 0.00 0.00 35 1010.9
20260504183035 68 190 8.0 16.0 0.00 0.00 0.00 35 1011.0
20260504182513 68 261 3.0 15.0 0.00 0.00 0.00 38 1011.0
20260504182018 68 182 5.0 15.0 0.00 0.00 0.00 35 1011.1
20260504181533 68 219 6.0 15.0 0.00 0.00 0.00 36 1011.2
20260504181014 68 280 3.0 17.0 0.00 0.00 0.00 36 1011.2
20260504180514 68 245 7.0 17.0 0.00 0.00 0.00 35 1011.3
20260504180034 68 236 5.0 14.0 0.00 0.00 0.00 35 1011.3
20260504175515 68 200 5.0 13.0 0.00 0.00 0.00 37 1011.4
20260504175016 68 209 5.0 15.0 0.00 0.00 0.00 36 1011.4
20260504174530 67 117 6.0 21.0 0.00 0.00 0.00 36 1011.4
20260504174019 67 236 9.0 21.0 0.00 0.00 0.00 36 1011.6
20260504173517 68 207 4.0 13.0 0.00 0.00 0.00 36 1011.6
20260504173030 68 196 4.0 13.0 0.00 0.00 0.00 37 1011.6
20260504172521 68 241 4.0 10.0 0.00 0.00 0.00 38 1011.6
20260504172016 67 232 5.0 16.0 0.00 0.00 0.00 38 1011.8
20260504171532 67 234 4.0 16.0 0.00 0.00 0.00 38 1011.8
20260504171016 67 254 3.0 16.0 0.00 0.00 0.00 35 1011.9
20260504170514 67 303 4.0 16.0 0.00 0.00 0.00 35 1012.0
20260504151015 63 211 6.0 17.0 0.00 0.00 0.00 37 1014.0
20260504150516 63 325 5.0 17.0 0.00 0.00 0.00 37 1014.1
20260504141020 61 250 5.0 14.0 0.00 0.00 0.00 43 1014.7
20260504140516 60 229 3.0 11.0 0.00 0.00 0.00 43 1014.7
20260504130516 57 191 4.0 12.0 0.00 0.00 0.00 47 1015.3
20260504110515 50 221 2.0 5.0 0.00 0.00 0.00 56 1014.0
20260504100516 48 309 0.0 2.0 0.00 0.00 0.00 58 1013.3
20260504081539 47 250 1.0 4.0 0.00 0.00 0.00 58 1013.2
20260504081016 47 178 0.0 7.0 0.00 0.00 0.00 58 1013.1
20260504080522 47 178 1.0 7.0 0.00 0.00 0.00 59 1013.0